User: anonymous   Login
Location: Unspecified
(0.0000°N, 0.0000°E)
Time: 17:51:05
(UTC+00:00)
Language:

deb Explorer IX - Orbit

View from above orbital plane
View from above orbital plane
View from above satellite
View from above satellite

Ground track
Ground track

The orbit data is extracted from the following two-line orbital elements,

1    85U 61004C   20017.50605826 +.00003368 +00000-0 +75497-3 0  9991
2    85 038.7709 075.8285 0383934 207.3285 150.6780 14.20235990909483
Epoch (UTC): 17 January 2020 12:08:43
Eccentricity: 0.0383934
inclination: 38.7709°
perigee height: 548 km
apogee height: 1101 km
right ascension of ascending node: 75.8285°
argument of perigee: 207.3285°
revolutions per day: 14.20235990
mean anomaly at epoch: 150.6780°
orbit number at epoch: 90948

The dashed part of the orbit path shows where the satellite is in the earth's shadow,  

DLR